Regional Weather Roundup
Issued by NWS

Home | Current Version | Previous Version | Graphics & Text | Print | Product List | Glossary On
Versions: 1 2 3 4 5 6 7 8 9 10 11 12 13 14 15 16 17 18 19 20 21 22 23 24 25 26 27 28 29 30 31 32 33 34 35 36 37 38 39 40 41 42 43 44 45 46 47 48 49 50
000
ASUS43 KFSD 241810
RWRSD

WEATHER ROUNDUP FOR SOUTH DAKOTA
NATIONAL WEATHER SERVICE SIOUX FALLS SD
100 PM CDT FRI MAR 24 2017

NOTE: "FAIR" INDICATES FEW OR NO CLOUDS BELOW 12,000 FEET WITH NO
SIGNIFICANT WEATHER AND/OR OBSTRUCTIONS TO VISIBILITY.


SDZ001>005-009-010-012>017-241900-
NORTHWEST AND NORTH CENTRAL SOUTH DAKOTA

CITY           SKY/WX    TMP DP  RH WIND       PRES   REMARKS
BUFFALO          N/A     55  40  56 VRB3      30.06S
FAITH            N/A     53  41  63 N6        30.11S
MOBRIDGE       SUNNY     50  32  50 NE9       30.11F
$$

SDZ012>016-024>037-041>051-057-063-072>074-241900-
SOUTHWEST AND SOUTH CENTRAL SOUTH DAKOTA

CITY           SKY/WX    TMP DP  RH WIND       PRES   REMARKS
RAPID CTY ARPT SUNNY     59  37  44 N21       30.10F
PIERRE         CLOUDY    52  36  54 N14       30.10F
CUSTER         MOSUNNY   48  23  37 NE8       30.11F
ELLSWORTH AFB  MOSUNNY   57  37  47 N18       30.10S
PHILIP         SUNNY     58  38  47 N9G17     30.10F
PINE RIDGE     SUNNY     53  38  56 N14       30.11S
SPEARFISH      FAIR      52  28  40 NW12      30.14F
WINNER         MOCLDY    55  37  50 N18G26    30.08S
$$

SDZ004>011-016>023-039-040-241900-
NORTHEAST SOUTH DAKOTA

CITY           SKY/WX    TMP DP  RH WIND       PRES   REMARKS
ABERDEEN       CLOUDY    38  30  73 NE16      30.15S
WATERTOWN      CLOUDY    35  34  96 N21       30.08R FOG     WCI  24
BROOKINGS      CLOUDY    38  35  89 NE18      30.04R
SISSETON         N/A     38  34  85 N16       30.13S
$$

SDZ017-020-022-023-036>040-048>070-241900-
SOUTHEAST SOUTH DAKOTA

CITY           SKY/WX    TMP DP  RH WIND       PRES   REMARKS
SIOUX FALLS    CLOUDY    43  37  79 NE14      30.07R
HURON          CLOUDY    41  35  79 N16       30.10R
CHAMBERLAIN    CLOUDY    49  38  65 NW10      30.09R
MITCHELL       CLOUDY    44  38  79 N13       30.10R
YANKTON        CLOUDY    39  36  87 N15       30.06R
$$

ABBREVIATIONS USED IN REMARKS
   TC - TEMPERATURE IN CELSIUS
  WCI - WIND CHILL INDEX
   HX - HEAT INDEX
  VSB - VISIBILITY





USA.gov is the U.S. government's official web portal to all federal, state and local government web resources and services.